FW4613 Weather Reports


time (UTC)temp
C
wind
direction
speed
KPH
gust
KPH
rain 1hr
cm
rain 24hr
cm
rain mn
cm
humidity
%
barometer
mb
20260510104551 10 157 0.0 0.0 0.00 0.56 0.56 98 1013.8
20260510104035 10 156 0.0 0.0 0.00 0.56 0.56 98 1013.7
20260510103552 10 157 0.0 0.0 0.00 0.56 0.56 98 1013.8
20260510103043 10 157 0.0 0.0 0.00 0.56 0.56 98 1013.7
20260510102557 10 157 0.0 0.0 0.00 0.56 0.56 98 1013.6
20260510102039 10 157 0.0 0.0 0.00 0.56 0.56 98 1013.5
20260510101603 10 157 0.0 3.2 0.00 0.56 0.56 98 1013.5
20260510101021 10 157 0.0 1.6 0.00 0.56 0.56 98 1013.4
20260510100559 10 157 0.0 3.2 0.00 0.56 0.56 98 1013.3
20260510100020 10 152 0.0 0.0 0.00 0.56 0.56 98 1013.2
20260510095543 10 149 0.0 0.0 0.00 0.56 0.56 98 1013.3
20260510095024 10 149 0.0 0.0 0.00 0.56 0.56 98 1013.4
20260510094541 10 149 0.0 0.0 0.00 0.56 0.56 98 1013.4
20260510094100 10 149 0.0 0.0 0.00 0.56 0.56 98 1013.3
20260510094008 10 149 0.0 0.0 0.00 0.56 0.56 98 1013.2
20260510093544 10 150 0.0 0.0 0.00 0.56 0.56 98 1013.2
20260510093014 10 150 0.0 0.0 0.00 0.56 0.56 98 1013.1
20260510092551 10 149 0.0 0.0 0.00 0.56 0.56 98 1013.0
20260510092017 10 150 0.0 0.0 0.00 0.56 0.56 98 1013.0
20260510091556 10 149 0.0 0.0 0.00 0.56 0.56 98 1012.8
20260510091017 10 148 0.0 0.0 0.00 0.56 0.56 98 1012.8
20260510090537 10 148 0.0 1.6 0.00 0.56 0.56 98 1012.7
20260510090059 10 142 0.0 1.6 0.00 0.56 0.56 98 1012.8
20260510090004 10 142 0.0 1.6 0.00 0.56 0.56 98 1012.9
20260510085537 10 134 0.0 1.6 0.00 0.56 0.56 98 1012.9
20260510085018 10 68 0.0 1.6 0.00 0.56 0.56 98 1013.2
20260510084535 10 68 0.0 1.6 0.00 0.56 0.56 98 1013.2
20260510084017 10 68 0.0 0.0 0.00 0.56 0.56 98 1013.2
20260510083539 10 68 0.0 0.0 0.00 0.56 0.56 98 1013.3
20260510083103 10 68 0.0 1.6 0.00 0.56 0.56 98 1013.2
20260510083000 10 66 0.0 1.6 0.00 0.56 0.56 98 1013.2
20260510082540 10 66 0.0 1.6 0.00 0.56 0.56 98 1013.4
20260510082058 10 149 0.0 1.6 0.00 0.56 0.56 98 1013.4
20260510081545 9 126 0.0 3.2 0.00 0.56 0.56 98 1013.5
20260510081059 9 160 0.0 4.8 0.00 0.56 0.56 98 1013.0
20260510081001 9 158 0.0 4.8 0.00 0.56 0.56 98 1013.2
20260510080545 9 141 0.0 4.8 0.00 0.56 0.56 98 1013.0
20260510080004 9 340 0.0 6.4 0.00 0.56 0.56 98 1013.3
20260510075530 9 29 0.0 6.4 0.00 0.56 0.56 98 1012.9
20260510075009 10 129 0.0 0.0 0.00 0.56 0.56 98 1012.7
20260510074545 10 129 0.0 0.0 0.00 0.56 0.56 98 1012.5
20260510074012 10 129 0.0 0.0 0.00 0.56 0.56 98 1012.4
20260510073540 10 129 0.0 0.0 0.00 0.56 0.56 98 1012.5
20260510073031 9 129 0.0 0.0 0.00 0.56 0.56 98 1012.4
20260510072546 9 129 0.0 0.0 0.00 0.56 0.56 98 1012.5
20260510072013 9 129 0.0 0.0 0.00 0.56 0.56 98 1012.3
20260510071556 9 129 0.0 0.0 0.00 0.56 0.56 98 1012.4
20260510071014 9 129 0.0 0.0 0.00 0.56 0.56 98 1012.5
20260510070552 9 129 0.0 1.6 0.00 0.56 0.56 98 1012.6
20260510070014 9 129 0.0 1.6 0.00 0.56 0.56 98 1012.5
20260510065537 9 129 0.0 3.2 0.00 0.56 0.56 98 1012.6
20260510065015 9 131 0.0 6.4 0.00 0.56 0.56 98 1012.5
20260510064536 9 127 0.0 6.4 0.00 0.56 0.56 98 1012.7
20260510064056 9 111 0.0 6.4 0.00 0.56 0.56 98 1012.5
20260510063542 8 130 1.6 6.4 0.00 0.56 0.56 98 1012.3
20260510063004 8 137 0.0 3.2 0.00 0.56 0.56 98 1012.4
20260510062542 8 106 0.0 1.6 0.00 0.56 0.56 98 1012.4
20260510062014 8 165 0.0 0.0 0.00 0.56 0.56 98 1012.2
20260510061550 8 205 0.0 0.0 0.00 0.56 0.56 98 1012.1
20260510061010 8 205 0.0 0.0 0.00 0.56 0.56 98 1012.0
20260510060535 8 205 0.0 0.0 0.00 0.56 0.56 98 1012.1
20260510060013 8 205 0.0 0.0 0.00 0.56 0.56 98 1012.0
20260510055532 8 205 0.0 0.0 0.00 0.56 0.56 98 1012.1
20260510055050 8 205 0.0 0.0 0.00 0.56 0.56 98 1012.2
20260510054533 9 205 0.0 0.0 0.00 0.56 0.56 98 1012.3
20260510054051 9 205 0.0 0.0 0.00 0.56 0.56 98 1012.4
20260510053519 9 205 0.0 0.0 0.00 0.56 0.56 98 1012.3
20260510053058 9 205 0.0 0.0 0.00 0.56 0.56 98 1012.2
20260510052528 9 205 0.0 0.0 0.00 0.56 0.56 98 1012.3
20260510052101 9 205 0.0 0.0 0.00 0.56 0.56 98 1012.3
20260510052007 9 205 0.0 0.0 0.00 0.56 0.56 98 1012.3
20260510051545 9 205 0.0 0.0 0.00 0.56 0.56 98 1012.2
20260510051005 9 205 0.0 0.0 0.00 0.56 0.56 98 1012.3
20260510050527 9 205 0.0 0.0 0.00 0.56 0.56 98 1012.4
20260510050059 10 205 0.0 1.6 0.00 0.56 0.56 98 1012.3
20260510045539 10 205 0.0 1.6 0.00 0.56 0.56 98 1012.4
20260510045013 10 205 0.0 0.0 0.00 0.56 0.56 98 1012.5
20260510044551 10 205 0.0 0.0 0.00 0.56 0.56 98 1012.5
20260510044033 10 205 0.0 0.0 0.00 0.56 0.56 98 1012.6
20260510043509 10 205 0.0 0.0 0.00 0.56 0.56 98 1012.5
20260510043054 10 205 0.0 0.0 0.00 0.56 0.56 98 1012.6
20260510042525 9 205 0.0 0.0 0.00 0.56 0.56 98 1012.6
20260510042005 9 205 0.0 0.0 0.00 0.56 0.56 98 1012.7
20260510041546 9 205 0.0 0.0 0.00 0.56 0.56 98 1012.7
20260510041030 9 205 0.0 0.0 0.00 0.56 0.56 98 1012.6
20260510040510 9 205 0.0 0.0 0.00 0.56 0.56 98 1012.7
20260510040047 9 205 0.0 0.0 0.00 0.56 0.56 98 1012.7
20260510035509 9 205 0.0 0.0 0.00 0.56 0.56 98 1012.7
20260510035040 9 205 0.0 0.0 0.00 0.56 0.56 98 1012.7
20260510034521 9 205 0.0 0.0 0.00 0.56 0.56 98 1012.7
20260510034059 9 205 0.0 0.0 0.00 0.56 0.56 98 1012.6
20260510034007 9 205 0.0 0.0 0.00 0.56 0.56 98 1012.5
20260510033542 9 205 0.0 0.0 0.00 0.56 0.56 98 1012.5
20260510033008 9 205 0.0 0.0 0.00 0.56 0.56 98 1012.6
20260510032544 9 205 0.0 0.0 0.00 0.56 0.56 98 1012.6
20260510032024 10 205 0.0 0.0 0.00 0.56 0.56 98 1012.5
20260510031502 10 205 0.0 0.0 0.00 0.56 0.56 98 1012.4
20260510031043 10 205 0.0 0.0 0.00 0.56 0.56 98 1012.3
20260510030525 9 205 0.0 0.0 0.00 0.56 0.56 98 1012.3
20260510030100 9 205 0.0 0.0 0.00 0.56 0.56 98 1012.3
20260510030012 9 205 0.0 0.0 0.00 0.56 0.56 98 1012.2
20260510025545 10 205 0.0 0.0 0.00 0.56 0.56 98 1012.3
20260510025028 10 205 0.0 0.0 0.00 0.56 0.56 98 1012.3
20260510024508 10 205 0.0 0.0 0.00 0.56 0.56 98 1012.3
20260510024044 10 205 0.0 0.0 0.00 0.56 0.56 98 1012.3
20260510023506 10 205 0.0 0.0 0.00 0.56 0.56 98 1012.3
20260510023044 10 205 0.0 0.0 0.00 0.56 0.56 98 1012.3
20260510022533 10 205 0.0 0.0 0.00 0.56 0.56 98 1012.3
20260510022048 10 205 0.0 0.0 0.00 0.56 0.56 98 1012.4
20260510021526 10 205 0.0 0.0 0.00 0.56 0.56 98 1012.3
20260510021004 10 205 0.0 0.0 0.00 0.56 0.56 98 1012.3
20260510020526 10 205 0.0 0.0 0.00 0.56 0.56 98 1012.3
20260510020004 10 205 0.0 0.0 0.00 0.56 0.56 98 1012.2
20260510015544 10 205 0.0 0.0 0.00 0.56 0.56 98 1012.1
20260510015026 10 205 0.0 0.0 0.00 0.56 0.56 98 1012.0
20260510014558 10 205 0.0 0.0 0.00 0.56 0.56 98 1012.1
20260510014504 10 205 0.0 0.0 0.00 0.56 0.56 98 1012.0
20260510014040 10 205 0.0 0.0 0.00 0.56 0.56 98 1012.1
20260510013519 10 205 0.0 0.0 0.00 0.56 0.56 98 1012.0
20260510013057 10 205 0.0 0.0 0.00 0.56 0.56 98 1012.0
20260510012518 10 205 0.0 0.0 0.00 0.56 0.56 98 1012.1
20260510012054 11 205 0.0 0.0 0.00 0.56 0.56 98 1012.1
20260510011550 11 205 0.0 0.0 0.00 0.56 0.56 98 1012.0
20260510011020 11 205 0.0 0.0 0.00 0.56 0.56 98 1011.9
20260510010556 11 205 0.0 0.0 0.00 0.56 0.56 98 1012.0
20260510010042 11 205 0.0 0.0 0.00 0.56 0.56 98 1011.9
20260510005518 11 205 0.0 0.0 0.00 0.56 0.56 98 1011.7
20260510005055 11 205 0.0 0.0 0.00 0.56 0.56 98 1011.7
20260510004520 11 205 0.0 0.0 0.00 0.56 0.56 98 1011.7
20260510004058 11 205 0.0 0.0 0.00 0.56 0.56 98 1011.8
20260510004008 11 205 0.0 0.0 0.00 0.56 0.56 98 1011.7
20260510003540 11 205 0.0 0.0 0.00 0.56 0.56 98 1011.6
20260510003047 12 205 0.0 0.0 0.00 0.56 0.56 97 1011.7
20260510002602 12 205 0.0 0.0 0.00 0.56 0.56 97 1011.7
20260510002035 12 205 0.0 0.0 0.00 0.56 0.56 97 1011.6
20260510001518 12 205 0.0 0.0 0.00 0.56 0.56 98 1011.4
20260510001043 12 205 0.0 1.6 0.00 0.56 0.56 97 1011.4
20260510000520 12 206 0.0 1.6 0.00 0.56 0.56 97 1011.3
20260509235522 12 207 0.0 1.6 0.00 0.56 0.56 97 1011.3
20260509235101 12 207 0.0 1.6 0.00 0.56 0.56 97 1011.4
20260509235002 12 207 0.0 1.6 0.00 0.56 0.56 97 1011.4
20260509234558 13 224 0.0 1.6 0.00 0.56 0.56 97 1011.4
20260509234029 13 224 0.0 3.2 0.00 0.56 0.56 97 1011.5
20260509233600 13 224 0.0 0.0 0.00 0.56 0.56 97 1011.4
20260509233042 13 195 0.0 0.0 0.00 0.56 0.56 97 1011.4
20260509232522 13 195 0.0 3.2 0.00 0.56 0.56 97 1011.6
20260509232100 13 195 0.0 3.2 0.00 0.56 0.56 97 1011.6
20260509232005 13 195 0.0 3.2 0.00 0.56 0.56 97 1011.6
20260509231550 13 69 0.0 1.6 0.00 0.56 0.56 97 1011.5
20260509231024 13 69 0.0 4.8 0.00 0.56 0.56 97 1011.5
20260509230557 14 68 0.0 4.8 0.00 0.56 0.56 97 1011.5
20260509230043 14 136 0.0 1.6 0.00 0.56 0.56 97 1011.4
20260509225520 14 40 0.0 1.6 0.00 0.56 0.56 98 1011.4
20260509225057 14 111 0.0 1.6 0.00 0.56 0.56 97 1011.4
20260509225006 14 111 0.0 1.6 0.00 0.56 0.56 97 1011.3
20260509224543 14 111 0.0 1.6 0.00 0.56 0.56 98 1011.3
20260509224100 14 110 0.0 1.6 0.00 0.56 0.56 98 1011.4
20260509224004 14 111 0.0 1.6 0.00 0.56 0.56 98 1011.5
20260509223542 14 111 0.0 1.6 0.00 0.56 0.56 98 1011.5
20260509223024 13 138 0.0 1.6 0.00 0.56 0.56 97 1011.4
20260509222544 14 125 0.0 0.0 0.00 0.56 0.56 98 1011.4
20260509222025 13 105 0.0 0.0 0.00 0.56 0.56 97 1011.4
20260509221544 14 106 0.0 0.0 0.00 0.56 0.56 97 1011.4
20260509221022 14 241 0.0 1.6 0.00 0.56 0.56 98 1011.3
20260509220557 14 241 0.0 6.4 0.00 0.56 0.56 98 1011.1
20260509220042 13 242 0.0 3.2 0.00 0.56 0.56 97 1011.1
20260509215520 14 131 0.0 1.6 0.00 0.56 0.56 98 1011.2
20260509215056 13 136 0.0 1.6 0.00 0.56 0.56 98 1011.2
20260509214536 13 134 0.0 1.6 0.00 0.56 0.56 98 1011.3
20260509214018 13 135 0.0 3.2 0.00 0.56 0.56 98 1011.3
20260509213554 13 133 0.0 3.2 0.00 0.56 0.56 98 1011.3
20260509213040 13 116 0.0 1.6 0.00 0.56 0.56 98 1011.5
20260509212521 13 116 0.0 1.6 0.00 0.56 0.56 97 1011.4
20260509212054 13 116 0.0 1.6 0.00 0.56 0.56 97 1011.5
20260509211540 13 110 0.0 3.2 0.00 0.56 0.56 97 1011.7
20260509211023 13 128 0.0 3.2 0.00 0.56 0.56 97 1011.8
20260509210556 13 105 0.0 1.6 0.00 0.56 0.56 98 1011.6
20260509210036 13 100 0.0 1.6 0.03 0.56 0.56 98 1011.7
20260509205511 13 100 0.0 1.6 0.03 0.56 0.56 98 1011.7
20260509205043 12 210 0.0 3.2 0.03 0.56 0.56 98 1011.6
20260509204522 12 211 0.0 3.2 0.03 0.56 0.56 98 1011.5
20260509204100 12 118 0.0 3.2 0.03 0.56 0.56 98 1011.5
20260509204004 12 119 0.0 3.2 0.05 0.56 0.56 98 1011.5
20260509203528 12 148 0.0 3.2 0.05 0.56 0.56 98 1011.6
20260509203044 12 129 0.0 4.8 0.05 0.56 0.56 98 1011.8
20260509202524 12 231 0.0 4.8 0.05 0.56 0.56 97 1011.5
20260509202056 12 218 1.6 3.2 0.05 0.56 0.56 97 1011.4
20260509201521 12 227 0.0 6.4 0.05 0.56 0.56 97 1011.5
20260509201040 12 227 0.0 4.8 0.08 0.56 0.56 97 1011.5
20260509200520 12 184 0.0 4.8 0.08 0.56 0.56 97 1011.7
20260509200040 12 165 0.0 4.8 0.08 0.53 0.53 97 1011.6
20260509195554 12 214 0.0 3.2 0.10 0.53 0.53 97 1011.7
20260509195033 12 217 0.0 3.2 0.10 0.53 0.53 97 1011.9
20260509194513 12 103 0.0 0.0 0.10 0.53 0.53 97 1012.0
20260509194033 12 103 0.0 4.8 0.08 0.51 0.53 97 1012.0
20260509193556 12 115 0.0 6.4 0.08 0.51 0.51 97 1012.1
20260509193039 12 136 0.0 6.4 0.08 0.51 0.51 97 1012.2
20260509192557 12 162 0.0 1.6 0.08 0.51 0.51 97 1012.2
20260509192022 12 163 0.0 3.2 0.10 0.51 0.51 97 1012.3
20260509191556 12 98 0.0 3.2 0.10 0.51 0.51 97 1012.3
20260509191020 12 125 0.0 3.2 0.08 0.48 0.48 97 1012.6
20260509190556 12 110 0.0 4.8 0.10 0.48 0.48 97 1012.7
20260509190038 12 63 0.0 4.8 0.10 0.46 0.46 97 1012.7
20260509185510 12 29 0.0 4.8 0.10 0.43 0.43 97 1012.8
20260509185039 12 50 0.0 6.4 0.10 0.43 0.43 97 1012.8
20260509184521 12 57 1.6 6.4 0.13 0.43 0.43 96 1012.9
20260509184053 12 56 0.0 3.2 0.13 0.43 0.43 96 1013.0
20260509183542 12 58 0.0 3.2 0.15 0.43 0.43 96 1012.9
20260509183024 12 54 0.0 4.8 0.20 0.43 0.43 94 1012.8
20260509182552 12 69 0.0 6.4 0.23 0.43 0.43 93 1012.8
20260509182027 13 52 0.0 4.8 0.23 0.41 0.41 93 1013.0
20260509181612 13 63 0.0 4.8 0.25 0.41 0.41 94 1013.0
20260509181034 13 63 0.0 4.8 0.25 0.41 0.41 93 1013.0
20260509180513 13 49 1.6 4.8 0.25 0.38 0.38 93 1013.2
20260509180040 13 49 0.0 4.8 0.25 0.36 0.36 93 1013.2
20260509175516 13 56 0.0 3.2 0.23 0.33 0.33 92 1013.2
20260509175052 13 52 0.0 3.2 0.23 0.33 0.33 92 1013.2
20260509174514 13 42 0.0 1.6 0.23 0.30 0.30 92 1013.0
20260509174050 13 41 0.0 3.2 0.23 0.30 0.30 92 1013.1
20260509173507 13 60 0.0 3.2 0.18 0.25 0.25 92 1013.0
20260509173029 13 60 0.0 3.2 0.18 0.23 0.23 91 1013.0
20260509172503 13 56 0.0 3.2 0.15 0.20 0.20 91 1012.9
20260509172026 13 60 0.0 3.2 0.13 0.18 0.18 90 1012.9
20260509171600 13 61 0.0 1.6 0.13 0.15 0.15 90 1012.7
20260509171041 13 60 0.0 1.6 0.13 0.15 0.15 88 1012.6
20260509170518 13 60 0.0 0.0 0.13 0.13 0.13 89 1012.7
20260509170054 13 60 0.0 3.2 0.10 0.10 0.10 89 1012.9
20260509165533 13 60 0.0 4.8 0.10 0.10 0.10 88 1012.9
20260509165016 13 63 0.0 4.8 0.10 0.10 0.10 87 1012.8
20260509164544 13 46 1.6 6.4 0.08 0.08 0.08 87 1012.9
20260509164024 13 31 1.6 6.4 0.08 0.08 0.08 86 1013.0
20260509163558 14 60 1.6 8.0 0.08 0.08 0.08 86 1012.9
20260509163035 14 54 1.6 8.0 0.05 0.05 0.05 85 1013.0
20260509162513 14 77 1.6 4.8 0.05 0.05 0.05 84 1013.1
20260509162048 14 53 0.0 6.4 0.05 0.05 0.05 84 1013.2
20260509161536 15 25 1.6 9.7 0.03 0.03 0.03 83 1013.3
20260509161015 15 39 1.6 9.7 0.03 0.03 0.03 83 1013.4
20260509160544 15 64 3.2 9.7 0.00 0.00 0.00 81 1013.4
20260509160023 15 56 1.6 11.3 0.00 0.00 0.00 81 1013.3
20260509155549 15 60 3.2 12.9 0.00 0.00 0.00 80 1013.3
20260509155033 15 65 4.8 16.1 0.00 0.00 0.00 81 1013.4
20260509154551 15 53 3.2 16.1 0.00 0.00 0.00 80 1013.7
20260509154023 15 17 4.8 14.5 0.00 0.00 0.00 79 1013.7
20260509153541 16 28 3.2 12.9 0.00 0.00 0.00 78 1013.8
20260509153017 16 84 1.6 12.9 0.00 0.00 0.00 79 1013.5
20260509152553 16 38 6.4 11.3 0.00 0.00 0.00 77 1013.4
20260509152017 16 66 1.6 14.5 0.00 0.00 0.00 78 1013.6
20260509151553 16 30 3.2 11.3 0.00 0.00 0.00 77 1013.5
20260509151018 16 15 4.8 12.9 0.00 0.00 0.00 76 1013.5
20260509150550 16 101 0.0 14.5 0.00 0.00 0.00 77 1013.4
20260509150032 16 66 1.6 14.5 0.00 0.00 0.00 77 1013.5
20260509145545 16 49 4.8 12.9 0.00 0.00 0.00 77 1013.3
20260509145024 16 31 4.8 12.9 0.00 0.00 0.00 76 1013.5
20260509144502 16 60 3.2 16.1 0.00 0.00 0.00 77 1013.4
20260509144029 16 60 4.8 14.5 0.00 0.00 0.00 76 1013.4
20260509143507 16 54 1.6 8.0 0.00 0.00 0.00 77 1013.3
20260509143045 16 38 1.6 11.3 0.00 0.00 0.00 77 1013.2
20260509142520 15 57 3.2 11.3 0.00 0.00 0.00 77 1013.4
20260509142055 15 72 1.6 9.7 0.00 0.00 0.00 77 1013.2
20260509141537 15 47 0.0 9.7 0.00 0.00 0.00 78 1013.2
20260509141017 15 66 1.6 6.4 0.00 0.00 0.00 79 1013.1
20260509140547 15 37 0.0 6.4 0.00 0.00 0.00 79 1013.3
20260509140027 15 72 1.6 6.4 0.00 0.00 0.00 78 1013.1
20260509135512 15 57 0.0 1.6 0.00 0.00 0.00 80 1013.0
20260509135045 15 57 0.0 1.6 0.00 0.00 0.00 80 1013.1
20260509134523 15 65 0.0 1.6 0.00 0.00 0.00 80 1013.1
20260509134054 15 68 0.0 6.4 0.00 0.00 0.00 81 1013.0
20260509133539 15 56 1.6 6.4 0.00 0.00 0.00 80 1013.2
20260509133102 15 81 0.0 6.4 0.00 0.00 0.00 79 1013.1
20260509132533 15 162 0.0 6.4 0.00 0.00 0.00 80 1013.0
20260509132012 15 68 0.0 0.0 0.00 0.00 0.00 80 1012.9
20260509131535 15 60 0.0 0.0 0.00 0.00 0.00 80 1012.9
20260509131019 15 60 0.0 0.0 0.00 0.00 0.00 81 1013.0
20260509130553 14 60 0.0 0.0 0.00 0.00 0.00 82 1013.1
20260509130031 14 59 0.0 0.0 0.00 0.00 0.00 82 1013.0
20260509125513 13 59 0.0 0.0 0.00 0.00 0.00 82 1013.0
20260509125049 13 55 0.0 0.0 0.00 0.00 0.00 82 1013.1
20260509124529 13 55 0.0 0.0 0.00 0.00 0.00 82 1013.1
20260509124014 13 192 0.0 0.0 0.00 0.00 0.00 82 1013.0
20260509123545 13 192 0.0 0.0 0.00 0.00 0.00 82 1013.1
20260509123025 13 192 0.0 0.0 0.00 0.00 0.00 82 1013.1
20260509122557 12 193 0.0 0.0 0.00 0.00 0.00 82 1013.3
20260509122036 12 193 0.0 0.0 0.00 0.00 0.00 82 1013.2
20260509121524 12 193 0.0 1.6 0.00 0.00 0.00 82 1013.1
20260509121053 12 193 0.0 3.2 0.00 0.00 0.00 82 1013.1
20260509120531 12 191 0.0 3.2 0.00 0.00 0.00 82 1013.1
20260509120054 12 188 0.0 1.6 0.00 0.00 0.00 82 1013.1
20260509115530 12 188 0.0 1.6 0.00 0.00 0.00 82 1013.0
20260509115010 12 188 0.0 1.6 0.00 0.00 0.00 82 1013.1
20260509114549 12 188 0.0 3.2 0.00 0.00 0.00 82 1013.1
20260509114010 12 189 0.0 1.6 0.00 0.00 0.00 81 1013.1
20260509113532 12 188 0.0 1.6 0.00 0.00 0.00 82 1013.2
20260509113011 12 188 0.0 0.0 0.00 0.00 0.00 82 1013.0
20260509112528 12 188 0.0 1.6 0.00 0.00 0.00 82 1013.1
20260509112013 12 188 0.0 1.6 0.00 0.00 0.00 82 1013.1
20260509111551 12 189 0.0 0.0 0.00 0.00 0.00 82 1013.1
20260509111029 12 189 0.0 0.0 0.00 0.00 0.00 81 1013.1
20260509110558 12 189 0.0 1.6 0.00 0.00 0.00 81 1013.1
20260509110500 12 189 0.0 1.6 0.00 0.00 0.00 81 1013.0
20260509110043 12 189 0.0 3.2 0.00 0.00 0.00 81 1013.2
20260509105526 12 189 0.0 3.2 0.00 0.00 0.00 81 1013.1
20260509105055 12 138 0.0 0.0 0.00 0.00 0.00 81 1013.2